Theta_e
325 325 324 323 322 319 317 315 313 311 308 305 300 294 292 292 296 302 295 294 300 301 294 290 290 289 289 288 287 287 287 286 285 286 286 287 286 286 285 285 284 283 282
324 323 323 323 319 315 313 310 309 307 303 301 294 292 293 299 303 298 301 304 297 290 290 290 289 288 287 287 286 286 286 285 284 284 284 285 285 285 284 284 283 283 282
318 317 312 309 308 305 303 301 300 299 297 293 292 294 302 302 304 304 300 297 297 295 289 288 288 287 287 287 286 285 285 285 284 284 283 284 283 283 283 283 283 282 282
300 298 297 297 297 296 296 296 295 293 292 294 297 301 301 301 300 300 299 299 290 288 288 287 287 287 286 286 286 286 285 284 284 283 283 282 282 283 283 282 282 282 281
297 297 296 296 296 296 296 296 296 296 297 297 297 297 298 299 297 292 289 288 288 288 287 287 287 286 286 286 286 285 285 284 283 282 282 282 282 282 282 283 282 281 281
295 294 294 296 296 296 296 297 298 297 297 297 298 296 292 290 289 289 288 288 287 287 287 287 287 287 286 286 286 285 285 284 283 283 283 283 283 283 283 282 282 280 279
294 294 295 296 296 295 295 294 293 294 294 292 290 290 289 288 287 287 287 287 287 287 287 286 286 286 286 286 286 285 285 285 285 285 284 283 283 283 282 282 281 280 280
292 293 293 293 292 291 292 291 290 290 289 288 289 289 289 290 290 289 287 286 286 286 286 286 286 286 286 285 285 285 284 284 284 284 284 284 284 284 283 282 282 281 280
288 289 290 291 291 290 290 290 290 290 290 289 289 288 286 285 284 285 285 285 284 284 284 284 284 284 285 284 285 285 285 284 284 284 284 284 284 284 284 284 283 278 278
283 285 286 288 288 287 286 286 287 287 285 284 284 283 283 283 284 284 284 283 283 283 283 283 283 284 284 285 285 285 285 285 284 284 284 284 284 283 284 284 283 279 277
280 281 282 282 282 283 282 283 283 283 283 283 283 282 282 282 282 280 280 280 280 281 281 281 282 282 283 283 284 284 283 284 284 284 284 284 284 284 283 282 283 281 280
279 279 279 279 279 280 279 279 279 280 280 279 279 279 277 277 277 277 277 278 278 278 278 278 278 278 279 280 281 281 282 283 283 283 283 283 283 284 284 282 281 281 280
277 277 277 277 277 276 276 276 277 277 276 275 275 275 275 274 274 275 275 275 275 275 275 275 275 276 276 277 277 278 278 279 281 282 282 282 282 282 282 282 278 278 276
275 274 274 274 275 275 275 275 275 275 274 274 273 273 272 272 274 274 274 273 273 272 273 271 272 272 271 272 272 272 272 273 273 274 275 276 276 280 281 280 276 273 271
273 272 272 272 272 272 273 274 274 274 274 273 273 271 271 272 273 273 273 272 271 271 269 268 268 268 268 268 268 268 268 269 270 271 272 272 273 274 275 276 273 269 268
270 270 270 270 270 270 270 270 271 272 272 272 272 271 270 272 272 271 271 271 269 269 266 266 266 266 266 266 266 266 266 266 267 267 267 268 268 270 273 272 270 269 268
269 269 269 269 268 268 268 268 268 269 268 268 269 269 269 270 270 269 269 268 266 265 264 264 264 264 264 264 264 264 264 264 264 265 266 266 267 268 272 270 268 267 267
269 268 268 267 267 267 267 266 266 266 265 266 267 267 266 268 268 267 267 264 263 263 262 262 262 262 262 263 263 263 263 263 263 263 263 265 266 269 270 269 267 266 266
267 267 267 266 266 266 266 266 265 265 264 264 265 266 265 266 265 264 264 262 262 261 261 261 261 261 261 261 261 262 262 262 262 262 262 264 265 268 269 268 267 266 265
267 267 268 268 268 267 267 266 265 265 264 264 263 263 264 265 263 262 261 261 261 260 260 260 260 260 260 260 260 260 261 261 261 261 262 263 264 268 267 267 265 264 263
269 268 268 267 266 266 265 264 264 263 263 262 262 262 264 263 261 261 260 260 259 259 259 259 259 259 259 259 259 260 260 260 261 261 262 263 265 265 265 264 263 262 261
266 265 265 264 264 264 264 263 263 262 262 261 261 261 262 260 260 259 259 258 258 258 258 258 258 258 258 258 259 260 260 260 261 261 262 263 263 263 262 262 261 260 259
265 265 265 264 264 263 263 263 262 262 261 261 260 260 259 259 258 258 258 258 258 257 257 257 257 257 258 258 259 260 260 260 260 260 261 262 261 261 260 260 259 259 259
265 265 264 264 264 264 263 262 262 261 261 261 260 260 259 259 258 258 257 257 257 257 257 257 257 257 258 258 259 260 261 261 260 260 261 261 260 260 260 259 259 259 259
266 265 265 264 264 264 263 263 263 262 262 261 260 260 259 259 258 257 257 257 257 256 257 257 257 257 258 259 260 261 262 262 261 260 260 260 260 260 259 259 259 259 259
266 266 265 265 265 264 263 263 262 262 261 261 260 259 258 258 257 257 256 256 256 256 257 257 257 258 259 259 261 262 263 263 262 261 260 260 260 260 260 259 260 260 259
Wind_Speed
31 30 31 32 33 36 35 36 35 34 33 31 30 27 24 20 19 15 12 14 12 10 7 8 11 13 13 15 15 15 16 15 9 15 19 19 21 24 27 29 29 30 31
27 26 30 32 33 33 32 32 33 33 30 29 28 26 26 21 14 14 12 10 9 6 9 14 15 15 16 17 18 19 20 19 17 17 22 28 27 28 30 30 32 33 33
16 23 22 23 25 23 22 23 24 27 28 28 25 22 20 15 14 11 7 6 8 12 14 16 18 17 20 21 21 23 23 23 24 25 24 26 28 31 32 34 37 37 37
20 22 22 19 18 17 16 16 18 20 22 24 21 17 13 9 5 4 7 10 12 14 15 17 19 20 23 25 25 25 25 26 28 27 26 26 25 31 30 32 29 32 36
24 24 23 20 21 19 21 23 26 23 17 11 11 9 8 3 3 5 7 9 12 16 18 19 20 22 24 25 27 29 28 29 27 24 26 24 24 23 24 25 30 30 35
32 28 25 29 27 27 21 21 18 15 13 9 7 6 9 7 6 9 11 13 14 17 19 22 22 24 27 27 28 29 30 30 27 27 28 25 31 28 29 28 28 21 9
34 32 30 29 27 22 20 17 16 17 13 12 12 11 11 10 10 11 13 15 18 21 22 25 27 28 29 30 32 31 30 30 34 38 34 33 35 32 31 29 27 26 30
36 37 27 27 25 21 24 21 18 17 16 15 14 12 11 11 13 14 15 16 18 21 22 24 26 29 31 31 33 33 32 32 36 36 38 45 41 38 35 35 34 33 31
34 31 28 27 25 24 24 21 17 17 17 17 17 18 18 17 15 16 16 18 20 22 23 24 25 28 30 29 30 31 32 33 31 31 36 41 42 41 39 35 28 21 18
29 29 28 28 29 28 26 24 22 22 22 21 23 24 26 25 24 25 25 25 22 23 24 24 24 24 26 28 30 30 32 33 33 34 34 36 37 40 40 38 38 25 21
29 31 32 32 31 29 29 29 27 27 28 28 26 26 29 28 26 29 28 27 27 26 25 26 27 29 31 32 31 33 34 39 39 37 38 37 36 36 38 39 43 39 33
31 34 35 35 32 31 31 31 32 29 28 26 24 24 26 26 27 29 29 27 26 25 24 26 31 34 33 33 33 33 36 38 36 35 34 35 33 34 34 37 42 42 42
34 36 35 34 34 34 34 31 29 29 27 26 25 24 24 26 29 29 28 28 29 29 27 31 32 30 29 28 28 30 31 31 32 32 32 33 35 37 34 34 34 36 35
34 32 33 34 32 31 32 29 28 27 25 23 22 21 20 23 28 31 33 33 33 32 34 38 29 28 27 28 28 27 26 27 31 32 35 38 40 37 31 32 28 28 21
34 32 31 31 31 30 28 27 25 27 26 23 23 23 25 26 31 30 32 34 33 32 32 27 26 26 29 29 29 29 29 30 31 31 31 35 35 37 33 28 22 17 15
30 28 28 26 26 27 27 27 24 22 22 24 24 24 24 22 28 30 31 31 31 32 31 30 32 33 33 35 35 34 32 32 32 35 35 34 35 34 33 23 18 14 10
32 30 32 33 32 31 31 31 29 30 22 25 27 25 28 27 33 34 34 35 34 37 32 30 30 31 32 32 34 35 36 35 37 34 34 36 36 35 23 11 11 9 8
31 30 30 30 29 29 29 29 29 29 29 35 35 28 31 30 33 33 32 35 36 34 27 26 27 28 30 32 33 34 35 35 35 35 36 34 34 35 13 13 11 10 9
30 28 26 26 27 28 27 28 29 28 27 28 37 37 37 31 32 28 27 28 26 24 25 25 27 28 30 31 33 35 35 35 36 35 35 33 33 29 21 17 9 9 7
28 28 30 29 29 29 29 30 31 32 32 33 33 33 33 33 39 34 30 27 25 25 27 27 28 28 29 30 31 32 33 35 35 33 33 33 35 21 18 8 6 6 2
23 23 23 24 23 23 22 21 19 19 21 23 25 25 23 25 28 26 26 24 25 25 26 27 29 29 30 30 31 31 32 33 32 32 31 33 20 19 7 2 2 2 5
16 14 14 15 16 15 15 16 17 18 20 22 26 27 24 26 25 26 25 25 26 27 28 28 30 30 31 31 33 33 32 33 32 30 29 25 18 5 2 4 6 7 6
14 14 15 15 16 17 18 18 20 20 22 24 25 26 27 27 27 27 28 29 29 28 29 28 29 33 33 34 34 32 31 31 31 27 24 13 7 6 5 7 8 9 8
15 15 15 17 18 19 21 23 24 24 25 27 29 30 31 31 31 31 29 29 29 29 29 32 32 31 34 35 35 31 33 27 25 19 15 9 6 6 8 10 11 10 10
15 16 17 19 22 24 26 28 30 31 32 32 33 33 33 33 33 32 30 29 29 29 33 31 30 31 32 32 30 28 28 24 22 15 11 6 7 9 11 13 13 12 14
16 18 21 23 26 28 30 31 33 35 37 38 37 36 34 33 33 32 31 29 28 32 31 31 30 30 29 28 26 26 27 15 18 13 8 8 11 13 14 15 14 16 18
Wind_Direction
200 198 196 195 198 200 203 206 202 201 201 196 190 181 173 171 174 177 185 174 204 217 234 251 254 255 256 254 253 252 251 242 242 267 272 270 260 266 275 276 275 274 276
200 193 196 191 189 190 194 198 200 195 192 187 176 170 168 175 185 184 189 198 215 227 262 262 259 261 263 262 262 260 260 257 252 262 274 274 269 275 276 273 274 276 274
165 175 167 167 174 175 179 183 184 181 175 165 162 167 169 178 176 193 212 222 263 267 259 265 266 265 267 268 266 267 267 268 268 262 267 274 278 281 277 273 271 276 277
93 86 87 100 107 117 131 141 140 142 141 145 159 178 157 156 171 186 244 262 260 263 263 265 270 272 272 276 275 275 277 275 272 263 267 271 272 278 275 269 270 269 268
77 89 92 99 106 111 123 125 125 135 145 147 137 137 116 130 314 307 282 276 274 275 274 277 280 282 283 283 280 282 279 271 262 263 268 272 268 266 256 269 265 265 267
72 65 82 96 100 102 106 115 118 110 103 91 86 61 43 31 345 330 314 300 290 286 294 296 297 294 291 291 290 282 273 266 259 258 266 264 266 264 266 259 259 259 277
69 75 73 82 82 90 91 84 75 75 73 59 46 35 24 7 347 335 324 314 306 306 306 303 306 306 304 302 298 293 281 270 260 260 264 262 268 266 268 266 257 252 258
58 62 64 66 69 67 77 72 62 57 53 45 39 28 16 6 357 350 337 322 314 315 316 314 310 309 307 305 302 297 290 285 279 269 264 269 268 271 268 269 270 265 262
58 64 67 70 71 66 64 65 61 57 51 44 38 33 31 29 22 16 2 350 343 338 332 329 325 320 320 315 307 300 295 289 286 280 275 275 275 274 272 275 266 243 258
50 63 70 71 69 65 61 57 57 59 57 58 61 53 45 42 37 29 17 13 3 350 343 338 335 330 325 321 314 307 299 297 298 294 286 282 281 277 271 261 264 247 248
62 67 69 68 68 70 67 66 66 60 57 54 54 44 41 39 33 21 17 11 360 351 344 339 333 329 324 318 312 304 297 300 300 297 293 289 283 275 264 254 260 246 249
68 67 63 65 63 63 58 55 54 51 48 41 39 36 30 27 21 15 13 8 0 352 344 336 330 326 322 321 318 312 309 306 301 296 293 291 290 286 277 259 249 248 248
64 61 61 62 59 54 54 49 47 46 43 36 32 27 20 17 15 10 7 1 358 353 345 337 334 335 334 333 330 325 325 327 315 300 291 286 285 282 282 272 251 246 247
64 57 57 58 57 56 51 52 51 46 43 37 31 24 15 14 10 6 1 359 357 354 345 345 343 342 341 336 337 334 329 325 319 315 311 309 313 307 268 263 242 236 235
60 58 55 54 54 55 57 49 53 52 46 39 32 27 15 11 6 1 0 358 355 352 343 349 346 346 344 342 338 337 333 331 325 319 319 318 316 316 296 243 224 215 218
57 50 51 50 49 47 44 49 52 49 42 37 32 26 16 12 4 2 359 356 355 355 359 357 352 349 345 339 334 330 330 329 327 322 316 316 311 305 297 253 233 218 216
58 52 49 48 44 41 39 35 21 29 30 27 20 16 13 5 2 360 358 355 1 358 1 352 343 338 332 329 328 327 325 325 323 318 317 312 309 306 291 254 245 222 214
58 55 51 48 45 42 38 33 28 19 8 4 11 6 3 2 358 357 356 351 356 354 346 337 328 325 324 323 321 320 319 320 319 316 313 309 309 306 291 280 245 221 211
54 52 49 46 42 39 33 28 23 16 6 358 359 359 2 355 350 354 354 353 339 330 328 326 324 321 319 317 316 316 316 315 314 314 312 310 307 300 317 289 249 216 190
46 43 40 34 31 28 25 20 14 8 2 355 351 348 346 339 340 341 339 335 330 327 326 323 321 319 318 317 317 316 315 316 316 315 313 312 310 316 307 279 208 171 129
43 39 36 31 27 22 17 9 360 349 340 334 336 339 331 328 328 324 321 320 321 320 320 320 320 320 321 322 320 319 318 316 317 316 316 314 327 326 304 233 161 122 112
43 37 29 22 15 10 4 354 348 341 337 333 334 336 333 330 326 321 320 319 324 324 326 322 320 322 323 322 322 321 321 320 321 320 321 317 323 325 56 88 86 87 85
31 26 22 14 5 359 354 349 345 341 336 336 335 332 330 329 328 326 325 328 328 326 327 325 324 327 328 326 326 323 321 321 326 330 335 338 358 30 54 72 84 85 72
20 14 7 2 356 350 345 341 340 338 335 335 335 334 333 332 330 329 327 327 326 327 330 332 335 329 332 333 329 333 337 335 338 345 342 356 28 49 80 85 82 73 58
7 2 356 351 347 343 339 338 336 336 335 333 331 330 329 328 327 327 326 326 328 329 331 337 334 334 336 338 338 343 346 334 347 348 350 11 62 84 91 86 78 64 48
359 354 349 344 340 337 334 332 331 331 330 329 326 324 324 322 323 325 325 324 326 327 333 336 336 339 340 344 345 351 349 352 356 10 26 67 90 94 90 83 74 63 57